Temp
60 60 60 60 59 59 59 59 59 59 59 60 60 60 60 60 59 51 48 60 60 68 68 64 64 63 62 59 63 66 52 45 55 58 59 68 65 71 73 70 72 75 73 78 76
59 59 59 59 59 59 59 58 59 59 59 59 59 59 59 60 51 49 61 68 68 70 61 58 57 60 54 56 60 57 47 54 63 64 62 67 66 68 68 68 67 71 77 80 78
59 59 59 59 59 59 58 58 58 59 59 59 59 59 59 59 49 59 71 69 70 68 60 60 59 57 49 52 53 51 49 59 63 65 67 65 66 70 67 66 67 67 71 76 77
58 58 59 58 58 58 58 58 58 58 58 58 58 59 59 53 44 62 73 71 71 65 62 59 55 48 45 47 53 49 57 60 61 66 65 64 68 66 68 69 72 73 74 74 75
58 58 58 58 58 58 58 58 57 58 57 58 58 59 52 46 54 68 73 71 66 63 59 56 51 48 43 47 51 48 52 58 61 61 62 66 64 65 66 73 75 74 75 73 73
58 58 58 58 58 57 57 57 57 56 56 57 58 59 47 44 65 69 67 65 64 59 55 55 53 55 50 47 46 50 51 54 58 60 61 62 64 66 69 72 74 73 73 74 74
58 57 57 57 57 58 58 57 56 56 56 58 59 58 47 52 64 64 65 61 63 63 59 61 60 56 53 47 51 51 46 51 54 54 56 61 56 59 68 71 69 70 71 71 72
57 57 57 57 57 57 57 57 56 56 57 58 60 52 45 63 62 64 61 63 65 63 63 65 63 56 50 51 51 44 43 38 47 53 58 57 48 61 65 65 66 67 67 68 69
57 56 56 56 56 57 56 55 56 57 58 59 49 46 48 67 64 69 66 65 65 65 64 73 60 51 51 43 39 40 34 35 44 50 51 50 47 59 63 63 62 64 65 67 66
56 56 55 56 56 56 55 55 56 58 59 60 59 46 55 58 64 69 68 68 63 61 60 57 49 44 41 40 31 35 35 39 40 48 49 46 48 54 59 60 59 60 63 64 66
56 55 55 55 56 55 51 50 50 50 49 51 53 53 58 65 68 65 69 65 61 56 45 48 42 37 42 45 45 42 40 39 44 50 47 45 47 52 55 56 56 58 58 61 63
55 55 54 54 55 54 47 52 53 52 46 56 57 57 62 62 56 63 68 56 53 45 47 43 38 47 51 48 45 43 39 38 44 50 47 45 46 52 53 54 56 57 58 58 60
54 54 54 54 54 50 49 56 57 54 43 53 59 57 58 61 55 57 63 56 50 45 44 39 46 53 50 44 44 40 38 38 39 45 46 44 42 44 50 53 56 57 58 58 57
54 54 54 54 51 48 53 58 54 54 38 49 55 61 62 60 54 65 65 60 50 46 45 43 49 49 44 44 45 36 46 45 43 38 29 44 27 40 45 47 51 54 54 54 56
54 54 54 53 44 51 56 53 52 54 26 54 56 67 63 56 57 60 67 58 50 48 46 44 45 44 42 45 48 43 47 43 42 35 31 35 28 34 45 43 45 50 53 53 54
53 54 54 48 45 51 53 51 54 38 29 48 56 54 53 56 56 61 60 62 58 49 47 47 51 48 49 49 48 48 42 38 34 31 24 32 31 29 38 42 46 52 52 54 54
53 53 50 52 51 51 50 51 36 29 50 45 47 51 47 48 53 54 53 48 44 38 36 44 44 47 50 42 45 41 32 23 23 23 24 35 31 36 44 50 49 49 51 53 52
52 52 51 53 50 50 50 43 30 42 43 51 50 49 44 48 48 49 46 41 47 45 37 33 34 43 49 44 39 35 33 21 16 20 23 36 27 34 46 50 50 51 50 51 52
51 47 49 52 54 50 45 32 34 40 49 47 48 41 41 46 45 44 41 42 46 44 36 34 35 48 49 49 46 35 29 34 22 24 22 28 33 42 49 47 48 49 50 49 51
43 45 50 54 52 49 40 37 40 50 50 49 37 42 35 39 39 39 39 46 46 48 46 40 32 44 47 47 45 40 42 26 24 18 18 26 28 32 40 44 46 47 47 49 51
44 46 54 52 51 43 32 36 44 53 51 46 42 39 40 38 38 37 41 45 48 44 44 38 33 36 41 38 36 35 31 31 28 26 23 23 29 39 41 44 43 45 49 50 53
40 42 53 53 42 33 34 40 49 49 51 47 46 43 40 40 37 38 38 43 48 46 39 38 31 28 34 42 44 40 35 32 23 21 28 20 29 47 46 44 45 45 48 51 52
37 38 51 51 30 32 38 43 46 47 46 44 42 43 42 36 33 39 41 47 47 43 38 38 29 24 29 35 38 35 38 37 36 33 29 25 29 46 46 47 51 47 45 48 51
38 36 39 39 37 34 34 37 40 49 46 46 43 42 38 34 37 36 37 45 47 45 52 43 30 29 24 31 32 30 36 39 37 29 29 30 33 40 43 44 44 43 44 47 49
36 31 34 31 32 31 31 36 37 38 43 43 39 39 36 30 32 33 37 39 44 46 39 37 31 32 35 36 36 35 35 37 35 37 30 35 34 40 43 43 42 43 45 47 48
34 32 33 30 34 32 34 31 35 38 37 37 34 38 36 30 34 35 34 33 33 38 34 37 29 32 30 37 36 33 37 38 38 38 38 38 35 44 46 44 44 44 45 45 47
36 35 38 33 31 30 30 33 35 36 39 42 38 35 33 38 41 41 41 40 39 35 32 33 29 31 27 34 33 29 36 38 39 43 39 32 39 45 43 44 44 44 46 45 47
MSLP
1019.05 1018.64 1018.23 1017.85 1017.56 1017.24 1016.98 1016.68 1016.33 1016.01 1015.67 1015.33 1014.96 1014.62 1014.27 1013.82 1013.33 1013.03 1012.34 1010.46 1010.41 1010.20 1010.18 1010.13 1009.78 1009.54 1009.69 1009.78 1009.64 1009.44 1009.97 1009.64 1008.71 1008.21 1007.89 1006.93 1007.18 1006.45 1006.28 1006.40 1006.13 1005.48 1005.39 1004.85 1004.57
1019.00 1018.54 1018.13 1017.74 1017.40 1017.08 1016.80 1016.51 1016.11 1015.71 1015.40 1015.10 1014.79 1014.47 1014.09 1013.68 1013.15 1012.13 1010.02 1009.89 1009.99 1010.13 1010.26 1010.21 1010.04 1009.64 1010.11 1009.86 1009.77 1009.79 1010.03 1009.39 1008.19 1007.68 1007.61 1007.14 1007.21 1006.81 1006.41 1006.07 1006.09 1005.52 1005.07 1004.59 1004.43
1018.98 1018.52 1018.05 1017.58 1017.19 1016.85 1016.59 1016.22 1015.89 1015.43 1015.11 1014.88 1014.64 1014.34 1013.88 1013.49 1012.77 1010.01 1009.15 1009.64 1009.75 1009.99 1010.23 1010.21 1010.08 1009.86 1010.17 1010.15 1010.06 1010.08 1009.79 1009.09 1008.29 1008.14 1007.86 1006.86 1006.99 1006.86 1006.50 1005.40 1005.60 1005.74 1005.15 1004.73 1004.29
1018.80 1018.33 1017.84 1017.42 1016.95 1016.55 1016.22 1015.90 1015.58 1015.27 1014.90 1014.65 1014.47 1014.17 1013.66 1013.48 1011.82 1009.06 1008.92 1009.32 1009.59 1009.96 1010.13 1009.99 1010.06 1010.02 1010.44 1010.63 1010.27 1010.34 1009.82 1009.31 1008.93 1008.36 1008.16 1007.54 1006.69 1006.62 1006.20 1005.33 1005.75 1005.81 1005.54 1004.95 1004.60
1018.54 1018.06 1017.60 1017.14 1016.68 1016.25 1015.79 1015.42 1015.19 1014.95 1014.72 1014.47 1014.34 1014.09 1013.68 1012.97 1010.71 1009.06 1008.87 1009.19 1009.64 1010.03 1010.10 1010.05 1009.90 1010.16 1010.53 1010.79 1010.52 1010.59 1010.42 1009.83 1009.24 1008.95 1008.37 1007.97 1007.12 1005.76 1004.83 1005.75 1005.65 1005.44 1005.48 1005.11 1004.67
1018.32 1017.81 1017.33 1016.79 1016.28 1015.81 1015.37 1014.98 1014.81 1014.67 1014.50 1014.33 1014.21 1014.05 1013.78 1012.12 1009.38 1008.99 1008.96 1009.37 1009.62 1009.92 1009.95 1010.01 1009.72 1009.93 1010.49 1010.88 1010.99 1010.83 1010.60 1010.16 1009.61 1009.02 1008.68 1008.21 1007.01 1006.33 1004.81 1005.35 1005.35 1005.59 1005.44 1004.96 1004.67
1018.05 1017.57 1017.07 1016.57 1015.95 1015.35 1014.89 1014.56 1014.36 1014.26 1014.18 1014.07 1014.02 1013.94 1013.44 1010.65 1009.17 1009.31 1009.16 1009.11 1009.23 1009.53 1009.53 1009.42 1009.50 1009.89 1010.51 1010.82 1011.01 1010.83 1010.69 1009.95 1009.21 1008.74 1008.39 1007.75 1006.95 1006.26 1005.82 1005.33 1005.32 1005.64 1005.45 1005.04 1004.72
1017.86 1017.35 1016.79 1016.20 1015.56 1014.95 1014.42 1014.05 1013.79 1013.66 1013.74 1013.81 1013.82 1013.85 1012.24 1009.57 1009.16 1009.14 1009.04 1008.97 1008.92 1009.13 1009.32 1008.98 1009.24 1009.93 1010.57 1011.00 1011.41 1011.53 1011.49 1010.97 1009.84 1009.50 1008.56 1008.38 1007.49 1007.12 1006.53 1005.86 1005.69 1005.96 1005.85 1005.72 1005.32
1017.58 1017.09 1016.52 1015.85 1015.20 1014.56 1013.97 1013.56 1013.07 1012.83 1013.22 1013.45 1013.77 1013.54 1011.21 1009.20 1009.13 1008.45 1008.56 1008.71 1008.60 1008.79 1008.96 1009.05 1009.40 1010.55 1011.02 1011.64 1012.31 1012.27 1012.23 1011.74 1010.69 1009.68 1009.50 1009.17 1008.61 1007.48 1006.97 1006.49 1006.54 1006.29 1006.09 1006.08 1005.71
1017.43 1016.72 1016.15 1015.49 1014.79 1014.21 1013.56 1012.94 1012.91 1012.62 1013.09 1013.35 1013.20 1013.27 1010.66 1009.63 1008.89 1008.46 1008.15 1008.46 1008.60 1008.75 1009.15 1009.62 1010.56 1011.31 1012.13 1012.53 1012.88 1012.68 1012.37 1011.80 1011.30 1010.32 1009.96 1009.61 1009.24 1008.79 1008.12 1007.35 1006.78 1006.59 1006.32 1006.01 1006.05
1017.08 1016.41 1015.70 1015.05 1014.38 1013.85 1013.38 1013.15 1013.37 1013.06 1012.90 1012.24 1011.95 1011.55 1010.50 1009.56 1008.70 1008.34 1008.13 1008.36 1008.77 1009.41 1010.21 1010.69 1011.36 1011.94 1011.94 1012.02 1012.13 1012.30 1012.33 1012.04 1011.35 1010.63 1010.44 1009.81 1009.04 1008.77 1008.22 1007.57 1006.87 1006.72 1006.54 1006.30 1006.03
1016.70 1016.04 1015.37 1014.73 1014.07 1013.58 1013.45 1013.27 1013.36 1013.24 1012.46 1011.16 1010.92 1010.72 1010.08 1009.85 1009.52 1008.54 1008.21 1008.78 1009.14 1009.96 1010.52 1011.35 1011.50 1011.25 1011.27 1011.42 1011.71 1012.02 1012.15 1012.17 1011.73 1011.29 1011.30 1010.61 1009.00 1007.93 1007.73 1007.39 1007.15 1007.03 1006.81 1006.33 1006.09
1016.37 1015.66 1014.96 1014.34 1013.82 1013.58 1013.33 1012.88 1012.71 1012.69 1012.59 1010.75 1010.10 1009.75 1009.38 1009.67 1009.37 1008.63 1008.54 1008.86 1009.43 1010.16 1010.69 1011.18 1010.90 1010.73 1010.91 1011.14 1011.41 1011.70 1011.98 1012.14 1012.34 1011.93 1011.46 1010.87 1008.57 1008.18 1007.68 1007.22 1006.92 1006.81 1006.39 1006.35 1006.30
1015.96 1015.29 1014.60 1013.96 1013.81 1013.73 1013.07 1012.49 1012.33 1012.20 1012.07 1010.60 1009.46 1008.64 1008.93 1009.08 1008.94 1008.10 1008.11 1008.70 1009.45 1010.11 1010.75 1010.91 1010.34 1010.40 1010.54 1010.80 1011.15 1011.51 1011.70 1012.02 1012.27 1012.61 1012.89 1012.03 1010.37 1008.72 1007.97 1007.78 1007.35 1006.70 1006.70 1006.47 1006.55
1015.50 1014.81 1014.23 1014.11 1013.99 1013.51 1012.87 1012.34 1012.09 1012.18 1011.78 1010.16 1008.89 1007.92 1008.43 1008.93 1008.71 1007.94 1007.89 1008.41 1009.21 1009.99 1010.87 1010.61 1010.37 1010.31 1010.44 1010.56 1010.97 1011.51 1011.81 1012.46 1012.89 1013.32 1013.51 1012.93 1012.40 1009.44 1008.16 1007.97 1007.70 1007.44 1006.96 1006.65 1006.41
1014.97 1014.29 1013.92 1014.16 1014.06 1012.98 1012.51 1012.38 1012.31 1012.82 1011.72 1010.17 1009.14 1008.76 1008.91 1008.91 1008.98 1008.40 1008.25 1008.48 1008.98 1009.97 1010.52 1010.45 1010.22 1010.21 1010.03 1010.48 1011.07 1011.72 1012.37 1013.11 1013.73 1014.30 1014.47 1013.45 1012.95 1009.32 1008.76 1007.97 1007.57 1006.83 1006.59 1006.45 1006.35
1014.62 1013.85 1013.81 1013.85 1013.50 1012.79 1012.50 1012.67 1013.21 1012.69 1011.64 1011.00 1010.22 1009.90 1009.94 1009.82 1009.50 1009.41 1009.12 1009.48 1009.79 1010.37 1010.82 1010.75 1010.53 1010.31 1010.27 1010.90 1011.56 1012.42 1013.59 1014.84 1015.22 1015.37 1014.87 1013.85 1012.96 1009.29 1008.22 1007.63 1007.37 1007.08 1006.44 1006.09 1005.91
1014.30 1013.77 1013.67 1013.34 1013.06 1012.84 1012.89 1013.40 1013.49 1012.93 1012.01 1011.17 1010.79 1010.48 1010.61 1010.62 1010.34 1010.34 1010.28 1010.54 1010.52 1010.80 1011.30 1011.49 1011.30 1010.83 1010.82 1011.21 1011.87 1012.84 1014.23 1015.75 1016.15 1016.11 1015.23 1014.14 1012.26 1008.88 1007.46 1006.90 1006.72 1006.65 1006.42 1006.02 1005.67
1014.03 1013.83 1013.73 1013.15 1012.80 1012.95 1013.71 1014.08 1013.74 1012.96 1012.32 1011.67 1011.33 1011.22 1011.30 1011.24 1011.39 1011.33 1011.23 1011.22 1011.18 1011.37 1011.96 1012.22 1011.96 1011.30 1011.12 1011.25 1011.86 1013.26 1014.42 1015.06 1015.90 1016.12 1015.46 1013.22 1011.01 1008.69 1007.09 1006.88 1006.62 1006.53 1006.41 1006.24 1005.72
1014.94 1014.60 1013.91 1013.16 1012.92 1013.29 1014.23 1014.38 1013.65 1012.79 1012.28 1011.74 1011.97 1011.98 1012.06 1012.02 1012.12 1012.04 1011.83 1011.60 1011.69 1011.78 1011.96 1012.56 1012.69 1012.01 1011.59 1011.55 1011.88 1012.72 1013.78 1015.35 1016.46 1016.63 1015.41 1012.28 1010.86 1008.23 1007.35 1006.91 1006.58 1006.56 1006.56 1006.11 1005.58
1015.35 1014.90 1013.63 1013.10 1013.20 1014.17 1015.11 1014.80 1013.64 1012.72 1012.33 1012.04 1012.03 1012.30 1012.50 1012.60 1012.62 1012.60 1012.27 1012.10 1011.98 1012.27 1012.57 1013.10 1013.68 1013.09 1012.47 1012.01 1012.28 1013.17 1013.87 1014.91 1015.78 1015.87 1015.05 1012.90 1008.85 1007.15 1006.97 1006.76 1006.77 1006.71 1006.29 1006.02 1005.24
1016.22 1015.51 1013.76 1013.07 1014.54 1016.12 1016.01 1015.19 1013.96 1012.97 1012.54 1012.35 1012.23 1012.45 1012.78 1012.95 1013.03 1012.94 1012.57 1012.23 1012.17 1012.45 1013.12 1013.64 1014.17 1014.14 1013.20 1012.04 1012.34 1012.84 1013.48 1014.28 1015.12 1015.14 1014.51 1013.21 1007.78 1006.82 1006.41 1006.65 1006.62 1006.61 1006.11 1005.74 1005.40
1017.62 1016.71 1014.37 1013.98 1016.03 1017.12 1016.55 1015.58 1014.53 1013.54 1013.06 1012.96 1012.98 1013.07 1013.26 1013.54 1013.72 1013.21 1012.88 1012.70 1012.55 1012.77 1013.36 1013.92 1014.53 1014.75 1013.77 1013.10 1012.76 1012.85 1013.16 1013.55 1014.20 1014.28 1012.64 1012.15 1007.69 1006.72 1006.47 1006.49 1006.16 1006.08 1006.12 1005.88 1005.13
1018.38 1018.20 1017.09 1016.80 1017.65 1017.77 1017.70 1016.37 1015.21 1014.13 1013.71 1013.64 1013.59 1013.66 1013.97 1014.16 1014.13 1013.97 1013.79 1013.24 1013.17 1013.19 1013.41 1013.92 1014.32 1014.63 1014.34 1013.38 1013.21 1013.00 1012.84 1013.02 1013.34 1012.74 1011.30 1010.19 1007.74 1007.51 1007.26 1006.92 1006.57 1006.24 1006.01 1005.51 1004.71
1019.44 1020.42 1020.32 1019.42 1019.03 1018.83 1018.32 1017.24 1016.25 1015.45 1014.78 1014.47 1014.31 1014.73 1014.98 1015.03 1014.88 1014.68 1014.36 1014.05 1013.62 1013.31 1013.60 1013.91 1014.43 1014.43 1013.89 1013.26 1012.79 1012.20 1011.61 1011.35 1011.52 1010.74 1010.52 1008.32 1008.79 1007.45 1006.83 1006.43 1006.06 1005.88 1005.61 1004.92 1003.86
1020.59 1021.04 1020.65 1020.28 1019.82 1019.27 1018.42 1017.71 1017.20 1016.65 1016.36 1015.55 1015.46 1015.61 1015.60 1015.73 1015.48 1015.05 1014.82 1014.69 1014.39 1013.83 1014.03 1014.35 1014.65 1014.43 1013.36 1012.47 1011.92 1011.09 1009.87 1009.72 1009.51 1009.22 1008.85 1008.34 1007.53 1007.07 1006.46 1006.02 1005.60 1005.33 1004.97 1004.30 1003.45
1021.24 1021.17 1021.15 1020.68 1020.08 1019.58 1018.71 1018.13 1017.71 1017.62 1016.49 1016.15 1016.23 1016.13 1015.68 1015.16 1014.81 1014.40 1014.14 1014.07 1014.02 1014.17 1014.53 1014.81 1014.81 1014.51 1012.95 1012.04 1011.43 1010.08 1008.28 1008.26 1008.10 1007.68 1007.70 1007.68 1006.72 1006.22 1005.73 1005.31 1004.69 1004.45 1004.41 1003.82 1003.01
Wind_Speed
16 16 17 17 17 17 17 17 16 16 15 15 15 16 16 17 18 3 6 8 2 4 1 5 2 1 2 1 2 2 2 5 4 4 3 3 5 3 2 5 4 3 3 9 3
18 18 17 17 17 17 17 17 16 16 16 15 15 16 16 16 6 6 10 7 7 1 2 2 2 3 2 2 1 3 3 7 0 3 6 9 4 6 6 9 1 4 8 7 2
18 18 18 18 17 17 17 17 16 16 16 16 15 15 16 13 4 5 7 9 6 4 1 0 0 2 2 1 3 2 4 1 3 2 7 8 8 2 6 16 5 8 11 11 8
19 19 19 18 18 18 17 17 16 16 16 15 15 15 15 2 3 2 8 10 8 5 1 1 2 3 3 4 2 1 4 1 0 4 5 7 12 8 11 16 2 5 10 9 10
21 21 20 20 19 18 18 17 16 15 15 15 13 12 5 2 8 5 7 9 6 3 1 0 3 3 3 2 3 4 1 3 5 6 6 7 10 20 16 11 6 5 8 10 10
19 21 21 22 21 19 18 17 15 14 14 13 11 8 2 3 1 5 8 5 3 4 2 3 2 4 4 2 2 2 2 5 7 7 6 7 12 10 9 6 10 5 8 7 9
21 22 22 23 22 21 19 16 14 13 11 10 7 3 2 12 2 5 5 5 4 4 3 5 3 3 4 2 2 2 4 6 6 3 6 9 13 13 9 5 8 6 5 8 8
22 23 24 23 23 22 20 18 16 14 10 7 6 2 8 5 3 6 4 4 6 6 4 4 4 4 2 1 5 2 4 4 4 3 4 7 4 4 6 7 8 5 4 5 8
23 24 23 24 23 23 21 20 17 8 6 4 3 2 9 6 3 4 5 4 3 4 4 1 4 4 6 4 5 6 1 1 8 2 3 1 5 7 12 7 9 6 4 5 6
24 22 23 24 24 23 23 16 2 8 6 4 2 2 4 3 4 5 5 3 1 2 5 7 6 4 4 5 2 3 2 3 4 6 6 5 7 5 9 8 8 7 6 5 5
25 24 23 24 23 20 9 3 5 4 2 6 4 4 5 7 4 2 3 2 3 7 2 4 5 2 5 6 4 2 3 3 4 4 7 10 12 11 7 6 9 7 8 6 7
25 26 24 23 22 18 0 5 3 2 7 7 7 6 5 2 4 6 1 2 3 1 1 6 2 6 3 3 4 4 3 2 5 5 5 9 20 16 8 6 5 6 8 9 6
24 25 24 22 23 2 1 2 3 4 0 7 4 4 4 7 5 7 7 2 3 1 2 4 4 3 2 1 2 1 3 2 5 4 5 7 10 3 2 4 6 7 8 6 7
25 23 21 20 2 3 1 4 5 2 4 3 2 2 4 3 4 6 7 6 1 6 3 4 3 0 2 2 4 1 4 2 4 7 3 5 10 4 3 4 5 10 8 7 7
25 23 16 6 2 1 4 7 4 4 4 3 1 1 2 3 3 3 3 3 8 6 5 6 2 2 1 3 4 6 2 2 3 2 2 5 3 7 8 6 5 8 9 7 8
25 22 8 2 0 5 6 6 4 6 0 3 3 5 4 3 4 5 2 3 2 5 2 7 2 3 6 2 1 3 3 5 4 3 2 5 4 4 3 2 8 11 7 8 8
26 18 3 1 1 5 4 4 6 5 3 5 3 4 1 4 4 4 3 3 4 3 2 2 2 1 2 2 3 5 6 5 6 4 5 4 4 13 10 16 7 9 9 9 8
27 6 1 3 4 5 4 6 5 3 3 2 3 7 3 4 2 5 3 0 5 3 2 4 3 3 1 4 5 2 7 6 5 4 5 1 9 10 7 7 7 8 9 9 10
18 3 2 3 2 3 6 5 5 1 5 4 6 2 2 3 3 6 4 1 2 2 3 3 4 3 2 4 6 2 3 3 2 2 2 6 7 12 15 12 9 9 7 10 10
2 3 4 7 2 5 6 2 2 1 4 0 3 2 2 3 2 4 3 1 3 1 2 4 3 4 3 1 2 6 6 2 3 2 6 6 7 13 9 10 9 9 8 10 10
3 3 3 6 3 6 4 4 3 5 3 3 4 3 4 3 3 3 4 1 1 2 4 3 3 4 1 4 7 1 2 2 3 4 4 6 11 5 9 9 7 9 10 12 18
2 3 4 3 6 2 1 1 5 2 3 3 2 2 4 3 3 5 6 4 1 3 3 3 4 4 9 7 2 6 7 6 5 4 5 4 18 3 8 4 5 9 8 12 15
2 3 4 4 3 3 6 5 3 4 2 2 2 1 2 2 3 4 3 5 4 3 4 5 1 3 7 4 4 2 4 3 1 3 15 10 12 5 7 11 16 16 8 10 13
3 5 6 6 1 3 5 4 5 4 1 3 3 3 2 1 2 4 2 3 5 3 7 5 5 8 8 6 3 8 13 14 13 6 9 14 26 19 18 17 11 8 8 12 13
4 0 2 5 3 3 1 3 3 5 5 4 2 6 3 3 2 5 3 4 8 8 4 7 6 5 10 14 13 17 20 17 16 18 14 20 19 24 20 15 7 6 10 15 16
3 3 3 2 3 3 1 1 2 4 3 5 1 6 3 4 7 15 4 4 7 2 2 1 2 2 7 13 12 14 16 14 16 17 18 18 20 19 11 8 10 10 13 16 18
2 2 1 3 3 2 3 1 2 5 6 4 4 4 4 11 7 10 11 10 9 5 3 4 2 4 6 3 7 9 9 7 4 5 5 9 12 14 11 14 14 12 13 17 16
Wind_Direction
344 342 340 339 337 335 332 329 325 323 320 318 317 319 321 322 319 343 235 219 195 245 168 303 312 87 107 208 225 147 198 213 223 139 229 290 358 222 242 234 352 329 343 298 88
343 340 338 336 334 333 332 328 323 321 318 316 317 319 321 324 299 257 246 194 216 202 345 26 22 52 106 207 247 157 191 214 208 59 300 286 193 320 331 301 201 305 304 323 44
342 339 336 334 332 330 327 325 321 317 316 315 317 320 322 324 306 255 181 186 189 153 110 33 41 87 144 167 199 171 192 271 31 25 295 295 292 296 303 286 85 334 315 326 325
341 337 334 331 327 326 324 322 317 313 312 313 317 322 321 298 159 285 142 148 135 116 9 86 79 79 107 190 325 165 247 291 263 332 306 289 318 281 250 267 320 316 280 289 301
338 336 333 332 328 325 321 320 315 311 309 309 315 326 344 307 250 303 129 138 123 119 221 119 92 108 128 292 329 152 41 342 303 279 261 284 275 282 258 301 275 288 299 290 288
336 335 333 330 327 324 320 317 312 306 303 304 313 322 313 277 235 341 135 131 154 165 179 176 190 183 127 161 151 230 233 262 244 222 226 234 261 255 277 6 307 271 255 268 286
335 334 332 328 324 323 319 314 308 299 294 296 300 268 311 238 313 350 179 194 180 184 212 200 199 137 132 357 217 273 298 306 250 265 247 206 260 255 300 335 302 8 315 293 279
334 333 332 328 324 321 318 311 302 289 279 277 267 172 248 251 286 294 166 264 220 208 231 276 158 116 128 153 23 63 45 26 277 311 281 153 283 295 15 331 327 360 9 0 338
333 332 329 328 326 324 319 312 302 269 220 187 129 168 273 308 279 278 153 237 178 193 217 133 85 80 31 70 12 2 120 264 311 334 306 96 290 331 338 338 312 320 316 310 319
332 330 329 326 326 326 321 315 215 107 118 168 239 343 282 324 301 300 208 242 310 7 25 48 48 72 38 71 236 283 344 315 261 311 7 304 235 285 289 300 286 292 301 305 297
332 330 328 327 326 328 333 55 18 7 163 211 201 255 282 302 294 332 304 117 72 50 48 11 70 183 226 199 198 198 191 231 275 312 1 301 290 291 262 267 284 296 305 290 279
330 331 328 326 325 326 115 70 31 214 312 232 241 247 264 77 310 303 306 174 96 271 74 23 204 213 244 191 185 168 164 249 290 278 320 275 283 288 257 225 213 280 280 275 285
328 331 327 325 321 356 46 138 345 153 280 300 199 196 225 146 221 260 153 149 169 237 189 165 233 182 189 88 90 305 160 248 234 287 259 322 289 128 249 258 250 259 266 267 257
330 330 327 325 13 312 286 341 333 184 56 303 325 294 140 166 272 217 187 149 159 215 190 234 268 23 326 255 137 316 205 235 305 20 310 56 286 306 270 290 286 278 274 278 301
332 331 326 324 282 88 318 337 311 59 60 269 342 143 155 191 304 288 167 87 205 184 118 252 215 205 133 223 178 222 164 287 268 260 41 292 292 265 353 282 291 287 281 281 270
334 336 331 91 150 256 316 313 56 47 177 338 27 355 347 9 308 305 230 91 146 144 222 246 242 204 193 130 59 56 21 20 45 84 30 248 183 258 251 194 307 300 279 274 294
336 341 150 143 281 314 315 51 44 101 333 334 310 353 325 313 341 327 326 31 191 128 252 290 210 65 106 88 7 78 53 344 342 359 228 191 291 255 271 288 266 268 279 285 284
333 344 206 221 287 339 47 55 84 316 289 288 311 309 163 356 12 331 355 108 28 71 104 170 290 146 99 185 199 200 149 159 239 233 242 28 249 255 239 246 244 250 267 287 291
328 339 331 297 241 59 70 62 176 271 303 285 329 359 344 6 0 12 352 248 105 55 161 160 267 297 210 191 133 162 188 197 136 268 344 225 287 290 279 257 258 260 262 277 289
20 0 305 321 23 60 73 197 208 292 313 263 214 222 270 276 293 17 284 291 169 194 110 198 293 241 269 43 263 161 167 66 7 290 258 265 257 239 300 282 260 281 300 292 288
35 51 266 333 63 47 116 232 279 290 329 258 220 246 239 252 209 221 257 115 294 83 57 127 150 286 339 213 205 275 218 91 144 170 236 302 262 197 245 264 287 293 302 304 305
21 27 316 17 47 20 109 276 285 262 1 315 348 227 210 215 249 236 223 210 271 139 188 186 162 232 233 247 223 179 206 161 148 239 225 212 263 211 253 326 300 294 304 317 313
40 283 328 58 87 333 314 304 279 331 307 318 306 46 50 258 270 227 251 125 67 120 174 188 220 323 324 4 339 172 179 173 301 243 250 253 264 18 328 306 311 318 318 313 318
44 4 333 37 52 80 360 284 305 328 286 338 283 95 29 298 238 298 320 312 354 159 291 167 187 185 217 236 181 278 265 267 261 250 280 239 281 284 287 284 298 297 303 308 310
25 8 176 314 355 346 242 285 298 328 342 316 317 36 2 293 288 252 243 300 292 286 341 158 230 216 255 268 267 260 264 261 244 249 251 283 282 291 288 286 270 277 300 303 305
70 34 1 282 295 289 247 123 306 1 294 289 22 333 330 239 230 274 271 201 234 300 95 130 273 270 274 256 258 262 253 244 248 249 254 262 266 267 274 286 286 283 299 303 297
342 357 52 284 323 347 243 291 285 358 269 246 356 313 276 276 263 250 233 233 231 198 151 170 187 307 267 333 318 279 269 202 219 241 212 244 274 315 295 288 286 290 291 287 285